{"data":{"norad_id":41328,"epoch":"2026-05-24T22:24:12.391200Z","epoch_age_seconds":76648,"freshness":"FRESH","line1":"1 41328U 16007A   26144.93347675 -.00000007  00000+0  00000+0 0  9999","line2":"2 41328  55.5105  90.3811 0096100 247.3195 111.6364  2.00552846 75376","mean_motion":2.00552846,"eccentricity":0.00961,"inclination_deg":55.5105,"raan_deg":90.3811,"arg_perigee_deg":247.3195,"mean_anomaly_deg":111.6364,"bstar":0,"rev_number":7537,"period_min":718.01524073111,"perigee_km":19927.906567287,"apogee_km":20438.414707881,"semimajor_km":26561.297637584,"source":"CELESTRAK","updated_at":"2026-05-25T13:38:23.765518Z"}}